Location: Godzisko
(49.9648°N, 19.4576°E)
Time: 07:55:58
(UTC+00:00)

Meteor 2-9 Rocket - Pass Details

Date: 20 April 2021
Orbit: 792 x 894 km, 81.3° (Epoch: 06 May)

Event Time Altitude Azimuth Distance (km) Brightness Sun altitude
Rises 00:05:00 0° 349° (NNW) 3,506 8.3 -25.8°
Reaches altitude 10° 00:07:29 10° 352° (N) 2,570 7.4 -25.7°
Maximum altitude 00:13:21 68° 75° (ENE) 961 4.5 -25.3°
Enters shadow 00:15:22 42° 144° (SE) 1,263 4.8 -25.1°
